Time,TemperatureF,DewpointF,PressureIn,WindDirection,WindDirectionDegrees,WindSpeedMPH,WindSpeedGustMPH,Humidity,HourlyPrecipIn,Conditions,Clouds,dailyrainin,SoftwareType,DateUTC
2013-05-25 00:02:00,67.0,64.0,30.11,SSE,160,10.0,18.0,90,0.01,,,0.11,,2013-05-25 05:02:00,
2013-05-25 00:12:00,67.0,64.0,30.11,SSE,160,10.0,18.0,90,0.01,,,0.11,,2013-05-25 05:12:00,
2013-05-25 00:22:00,68.0,65.0,30.11,SSE,153,7.0,14.0,89,0.01,,,0.11,,2013-05-25 05:22:00,
2013-05-25 00:32:00,68.0,65.0,30.11,SE,140,7.0,10.0,89,0.01,,,0.11,,2013-05-25 05:32:00,
2013-05-25 00:42:00,68.0,65.0,30.11,SE,140,7.0,10.0,89,0.01,,,0.11,,2013-05-25 05:42:00,
2013-05-25 00:52:00,68.0,64.0,30.10,SE,144,4.0,6.0,88,0.01,,,0.11,,2013-05-25 05:52:00,
2013-05-25 01:02:00,68.0,64.0,30.09,SE,144,1.0,3.0,88,0.01,,,0.11,,2013-05-25 06:02:00,
2013-05-25 01:12:00,68.0,65.0,30.09,SE,144,0.0,0.0,89,0.00,,,0.11,,2013-05-25 06:12:00,
2013-05-25 01:21:00,68.0,65.0,30.09,SE,144,0.0,0.0,89,0.00,,,0.11,,2013-05-25 06:21:00,
2013-05-25 01:32:00,68.0,65.0,30.07,SE,143,2.0,6.0,90,0.00,,,0.11,,2013-05-25 06:32:00,
2013-05-25 01:42:00,68.0,65.0,30.07,SE,143,2.0,6.0,90,0.00,,,0.11,,2013-05-25 06:42:00,
2013-05-25 01:52:00,67.0,64.0,30.07,East,81,1.0,5.0,91,0.00,,,0.11,,2013-05-25 06:52:00,
2013-05-25 02:01:00,67.0,65.0,30.06,ENE,65,5.0,10.0,92,0.00,,,0.11,,2013-05-25 07:01:00,
2013-05-25 02:11:00,67.0,65.0,30.06,ENE,65,5.0,10.0,92,0.00,,,0.11,,2013-05-25 07:11:00,
2013-05-25 02:21:00,67.0,65.0,30.07,West,273,5.0,8.0,92,0.00,,,0.11,,2013-05-25 07:21:00,
2013-05-25 02:32:00,67.0,65.0,30.05,NNW,346,1.0,8.0,92,0.00,,,0.11,,2013-05-25 07:32:00,
2013-05-25 02:42:00,67.0,65.0,30.05,NNW,346,1.0,8.0,92,0.00,,,0.11,,2013-05-25 07:42:00,
2013-05-25 02:52:00,67.0,65.0,30.06,SSE,159,0.0,1.0,92,0.00,,,0.11,,2013-05-25 07:52:00,
2013-05-25 03:02:00,67.0,65.0,30.06,SSE,159,0.0,0.0,92,0.00,,,0.11,,2013-05-25 08:02:00,
2013-05-25 03:11:00,67.0,65.0,30.06,SSE,159,0.0,0.0,92,0.00,,,0.11,,2013-05-25 08:11:00,
2013-05-25 03:22:00,67.0,65.0,30.06,SSE,157,0.0,3.0,92,0.00,,,0.11,,2013-05-25 08:22:00,
2013-05-25 03:32:00,67.0,65.0,30.05,SSE,157,4.0,6.0,92,0.00,,,0.11,,2013-05-25 08:32:00,
2013-05-25 03:42:00,67.0,65.0,30.06,SSE,157,1.0,6.0,92,0.00,,,0.11,,2013-05-25 08:42:00,
2013-05-25 03:52:00,67.0,65.0,30.06,SSE,157,1.0,6.0,92,0.00,,,0.11,,2013-05-25 08:52:00,
2013-05-25 04:01:00,67.0,65.0,30.06,SSE,157,0.0,2.0,92,0.00,,,0.11,,2013-05-25 09:01:00,
2013-05-25 04:11:00,67.0,65.0,30.06,SSE,157,0.0,2.0,92,0.00,,,0.11,,2013-05-25 09:11:00,
2013-05-25 04:21:00,67.0,65.0,30.07,SSE,152,0.0,3.0,93,0.00,,,0.11,,2013-05-25 09:21:00,
2013-05-25 04:33:00,67.0,65.0,30.06,SSE,152,1.0,3.0,93,0.00,,,0.11,,2013-05-25 09:33:00,
2013-05-25 04:42:00,67.0,65.0,30.06,SSE,152,1.0,3.0,93,0.00,,,0.11,,2013-05-25 09:42:00,
2013-05-25 04:53:00,67.0,65.0,30.07,SSE,151,1.0,5.0,93,0.00,,,0.11,,2013-05-25 09:53:00,
2013-05-25 05:02:00,67.0,65.0,30.07,SSE,149,1.0,3.0,93,0.00,,,0.11,,2013-05-25 10:02:00,
2013-05-25 05:12:00,67.0,65.0,30.07,SSE,149,1.0,3.0,93,0.00,,,0.11,,2013-05-25 10:12:00,
2013-05-25 05:22:00,67.0,65.0,30.07,SSE,149,0.0,0.0,93,0.00,,,0.11,,2013-05-25 10:22:00,
2013-05-25 05:32:00,67.0,65.0,30.06,SSE,149,1.0,3.0,93,0.00,,,0.11,,2013-05-25 10:32:00,
2013-05-25 05:42:00,67.0,65.0,30.06,SSE,149,1.0,3.0,93,0.00,,,0.11,,2013-05-25 10:42:00,
2013-05-25 05:52:00,67.0,65.0,30.06,SE,146,0.0,1.0,93,0.00,,,0.11,,2013-05-25 10:52:00,
2013-05-25 06:02:00,67.0,65.0,30.06,SSE,147,0.0,2.0,94,0.00,,,0.11,,2013-05-25 11:02:00,
2013-05-25 06:12:00,67.0,65.0,30.06,SSE,147,0.0,2.0,94,0.00,,,0.11,,2013-05-25 11:12:00,
2013-05-25 06:21:00,67.0,65.0,30.06,SSE,147,0.0,0.0,94,0.00,,,0.11,,2013-05-25 11:21:00,
2013-05-25 06:32:00,67.0,65.0,30.07,SE,146,1.0,3.0,94,0.00,,,0.11,,2013-05-25 11:32:00,
2013-05-25 06:41:00,67.0,65.0,30.07,SE,146,1.0,3.0,94,0.00,,,0.11,,2013-05-25 11:41:00,
2013-05-25 06:52:00,67.0,65.0,30.07,SSE,147,0.0,0.0,94,0.00,,,0.11,,2013-05-25 11:52:00,
2013-05-25 07:01:00,67.0,65.0,30.07,SE,146,1.0,2.0,94,0.00,,,0.11,,2013-05-25 12:01:00,
2013-05-25 07:12:00,67.0,65.0,30.07,SE,146,1.0,2.0,94,0.00,,,0.11,,2013-05-25 12:12:00,
2013-05-25 07:22:00,67.0,65.0,30.07,SSE,147,0.0,3.0,94,0.00,,,0.11,,2013-05-25 12:22:00,
2013-05-25 07:32:00,67.0,65.0,30.07,SE,146,0.0,3.0,94,0.00,,,0.11,,2013-05-25 12:32:00,
2013-05-25 07:42:00,67.0,65.0,30.07,SE,146,0.0,3.0,94,0.00,,,0.11,,2013-05-25 12:42:00,
2013-05-25 07:52:00,67.0,65.0,30.07,SE,146,2.0,3.0,94,0.00,,,0.11,,2013-05-25 12:52:00,
2013-05-25 08:02:00,68.0,66.0,30.06,SE,146,1.0,2.0,93,0.00,,,0.11,,2013-05-25 13:02:00,
2013-05-25 08:11:00,68.0,66.0,30.06,SE,146,1.0,2.0,93,0.00,,,0.11,,2013-05-25 13:11:00,
2013-05-25 08:21:00,68.0,66.0,30.07,SE,141,5.0,6.0,93,0.00,,,0.11,,2013-05-25 13:21:00,
2013-05-25 08:32:00,69.0,66.0,30.08,SE,126,1.0,5.0,91,0.00,,,0.11,,2013-05-25 13:32:00,
2013-05-25 08:42:00,69.0,66.0,30.08,SE,126,1.0,5.0,91,0.00,,,0.11,,2013-05-25 13:42:00,
2013-05-25 08:52:00,69.0,66.0,30.08,SE,127,3.0,6.0,91,0.00,,,0.11,,2013-05-25 13:52:00,
2013-05-25 09:02:00,70.0,67.0,30.09,SE,132,6.0,8.0,90,0.00,,,0.11,,2013-05-25 14:02:00,
2013-05-25 09:11:00,70.0,67.0,30.09,SE,132,6.0,8.0,90,0.00,,,0.11,,2013-05-25 14:11:00,
2013-05-25 09:22:00,70.0,67.0,30.09,SE,142,7.0,16.0,90,0.00,,,0.11,,2013-05-25 14:22:00,
2013-05-25 09:32:00,71.0,68.0,30.10,SE,139,5.0,12.0,90,0.00,,,0.11,,2013-05-25 14:32:00,
2013-05-25 09:42:00,71.0,68.0,30.10,SE,139,5.0,12.0,90,0.00,,,0.11,,2013-05-25 14:42:00,
2013-05-25 09:52:00,71.0,68.0,30.10,SE,132,7.0,12.0,89,0.00,,,0.11,,2013-05-25 14:52:00,
2013-05-25 10:01:00,72.0,69.0,30.09,SE,134,5.0,9.0,90,0.00,,,0.11,,2013-05-25 15:01:00,
2013-05-25 10:11:00,72.0,69.0,30.09,SE,134,5.0,9.0,90,0.00,,,0.11,,2013-05-25 15:11:00,
2013-05-25 10:22:00,72.0,69.0,30.10,SE,139,5.0,10.0,89,0.00,,,0.11,,2013-05-25 15:22:00,
2013-05-25 10:33:00,73.0,70.0,30.10,SE,135,5.0,9.0,89,0.00,,,0.11,,2013-05-25 15:33:00,
2013-05-25 10:43:00,73.0,70.0,30.10,SE,135,5.0,9.0,89,0.00,,,0.11,,2013-05-25 15:43:00,
2013-05-25 10:53:00,73.0,70.0,30.10,SE,131,3.0,10.0,89,0.00,,,0.11,,2013-05-25 15:53:00,
2013-05-25 11:03:00,74.0,71.0,30.10,SE,140,5.0,9.0,89,0.00,,,0.11,,2013-05-25 16:03:00,
2013-05-25 11:12:00,74.0,71.0,30.10,SE,140,5.0,9.0,89,0.00,,,0.11,,2013-05-25 16:12:00,
2013-05-25 11:23:00,75.0,71.0,30.10,SE,130,8.0,12.0,87,0.00,,,0.11,,2013-05-25 16:23:00,
2013-05-25 11:32:00,76.0,72.0,30.10,SE,134,5.0,10.0,86,0.00,,,0.11,,2013-05-25 16:32:00,
2013-05-25 11:42:00,76.0,72.0,30.10,SE,134,5.0,10.0,86,0.00,,,0.11,,2013-05-25 16:42:00,
2013-05-25 11:52:00,77.0,72.0,30.10,SE,127,8.0,14.0,84,0.00,,,0.11,,2013-05-25 16:52:00,
2013-05-25 12:02:00,78.0,72.0,30.10,SE,130,8.0,16.0,82,0.00,,,0.11,,2013-05-25 17:02:00,
2013-05-25 12:11:00,78.0,72.0,30.10,SE,130,8.0,16.0,82,0.00,,,0.11,,2013-05-25 17:11:00,
2013-05-25 12:22:00,79.0,72.0,30.10,SSE,153,10.0,20.0,79,0.00,,,0.11,,2013-05-25 17:22:00,
2013-05-25 12:32:00,78.0,71.0,30.09,SE,138,9.0,23.0,80,0.00,,,0.11,,2013-05-25 17:32:00,
2013-05-25 12:42:00,78.0,71.0,30.09,SE,138,9.0,23.0,80,0.00,,,0.11,,2013-05-25 17:42:00,
2013-05-25 12:52:00,78.0,71.0,30.09,SE,143,12.0,18.0,79,0.00,,,0.11,,2013-05-25 17:52:00,
2013-05-25 13:01:00,79.0,72.0,30.09,SE,134,7.0,13.0,80,0.00,,,0.11,,2013-05-25 18:01:00,
2013-05-25 13:11:00,79.0,72.0,30.09,SE,134,7.0,13.0,80,0.00,,,0.11,,2013-05-25 18:11:00,
2013-05-25 13:21:00,79.0,72.0,30.09,SE,143,9.0,20.0,78,0.00,,,0.11,,2013-05-25 18:21:00,
2013-05-25 13:32:00,80.0,72.0,30.08,SSE,151,8.0,18.0,77,0.00,,,0.11,,2013-05-25 18:32:00,
2013-05-25 13:42:00,80.0,72.0,30.08,SSE,151,8.0,18.0,77,0.00,,,0.11,,2013-05-25 18:42:00,
2013-05-25 13:52:00,80.0,71.0,30.07,SE,136,10.0,20.0,74,0.00,,,0.11,,2013-05-25 18:52:00,
2013-05-25 14:01:00,80.0,71.0,30.06,SSE,150,12.0,22.0,74,0.00,,,0.11,,2013-05-25 19:01:00,
2013-05-25 14:11:00,80.0,71.0,30.06,SSE,150,12.0,22.0,74,0.00,,,0.11,,2013-05-25 19:11:00,
2013-05-25 14:21:00,81.0,72.0,30.06,SE,136,11.0,23.0,73,0.00,,,0.11,,2013-05-25 19:21:00,
2013-05-25 14:32:00,80.0,71.0,30.06,SE,135,9.0,20.0,74,0.00,,,0.11,,2013-05-25 19:32:00,
2013-05-25 14:42:00,80.0,71.0,30.06,SE,135,9.0,20.0,74,0.00,,,0.11,,2013-05-25 19:42:00,
2013-05-25 14:52:00,80.0,71.0,30.05,SE,141,8.0,22.0,75,0.00,,,0.11,,2013-05-25 19:52:00,
2013-05-25 15:02:00,80.0,72.0,30.05,ESE,123,6.0,15.0,76,0.00,,,0.11,,2013-05-25 20:02:00,
2013-05-25 15:11:00,80.0,72.0,30.05,ESE,123,6.0,15.0,76,0.00,,,0.11,,2013-05-25 20:11:00,
2013-05-25 15:21:00,79.0,71.0,30.04,ESE,117,10.0,16.0,77,0.00,,,0.11,,2013-05-25 20:21:00,
2013-05-25 15:32:00,78.0,72.0,30.04,SSE,159,5.0,10.0,81,0.00,,,0.11,,2013-05-25 20:32:00,
2013-05-25 15:42:00,78.0,72.0,30.04,SSE,159,5.0,10.0,81,0.00,,,0.11,,2013-05-25 20:42:00,
2013-05-25 15:52:00,80.0,71.0,30.04,SSE,162,9.0,26.0,74,0.00,,,0.11,,2013-05-25 20:52:00,
2013-05-25 16:02:00,81.0,71.0,30.03,SE,146,12.0,20.0,71,0.00,,,0.11,,2013-05-25 21:02:00,
2013-05-25 16:11:00,81.0,71.0,30.03,SE,146,12.0,20.0,71,0.00,,,0.11,,2013-05-25 21:11:00,
2013-05-25 16:21:00,81.0,71.0,30.03,SE,146,10.0,18.0,72,0.00,,,0.11,,2013-05-25 21:21:00,
2013-05-25 16:33:00,81.0,71.0,30.01,SSE,150,10.0,20.0,71,0.00,,,0.11,,2013-05-25 21:33:00,
2013-05-25 16:43:00,81.0,71.0,30.01,SSE,150,10.0,20.0,71,0.00,,,0.11,,2013-05-25 21:43:00,
2013-05-25 16:53:00,82.0,69.0,30.01,SE,132,12.0,21.0,66,0.00,,,0.11,,2013-05-25 21:53:00,
2013-05-25 17:03:00,82.0,69.0,30.02,SE,131,10.0,20.0,66,0.00,,,0.11,,2013-05-25 22:03:00,
2013-05-25 17:12:00,82.0,69.0,30.02,SE,131,10.0,20.0,66,0.00,,,0.11,,2013-05-25 22:12:00,
2013-05-25 17:22:00,81.0,69.0,30.02,SE,145,9.0,20.0,68,0.00,,,0.11,,2013-05-25 22:22:00,
2013-05-25 17:32:00,83.0,72.0,30.01,SE,133,9.0,16.0,69,0.00,,,0.11,,2013-05-25 22:32:00,
2013-05-25 17:42:00,83.0,72.0,30.01,SE,133,9.0,16.0,69,0.00,,,0.11,,2013-05-25 22:42:00,
2013-05-25 17:52:00,75.0,69.0,30.04,South,181,13.0,26.0,82,0.19,,,0.30,,2013-05-25 22:52:00,
2013-05-25 18:02:00,71.0,68.0,30.03,SE,134,10.0,15.0,89,0.45,,,0.56,,2013-05-25 23:02:00,
2013-05-25 18:12:00,71.0,68.0,30.03,SE,134,10.0,15.0,89,0.45,,,0.56,,2013-05-25 23:12:00,
2013-05-25 18:22:00,71.0,68.0,30.02,SE,144,5.0,10.0,89,0.45,,,0.56,,2013-05-25 23:22:00,
2013-05-25 18:32:00,72.0,68.0,30.01,SE,137,7.0,10.0,88,0.45,,,0.56,,2013-05-25 23:32:00,
2013-05-25 18:42:00,73.0,69.0,30.01,ESE,113,2.0,6.0,88,0.26,,,0.56,,2013-05-25 23:42:00,
2013-05-25 18:52:00,73.0,69.0,30.01,ESE,113,2.0,6.0,88,0.26,,,0.56,,2013-05-25 23:52:00,
2013-05-25 19:01:00,73.0,69.0,30.01,ESE,109,5.0,7.0,87,0.00,,,0.56,,2013-05-26 00:01:00,
2013-05-25 19:11:00,73.0,69.0,30.01,ESE,109,5.0,7.0,87,0.00,,,0.56,,2013-05-26 00:11:00,
2013-05-25 19:21:00,73.0,68.0,30.01,ESE,112,2.0,6.0,85,0.00,,,0.56,,2013-05-26 00:21:00,
2013-05-25 19:31:00,73.0,69.0,30.01,ESE,113,1.0,6.0,86,0.00,,,0.56,,2013-05-26 00:31:00,
2013-05-25 19:42:00,73.0,69.0,30.01,ESE,113,1.0,6.0,86,0.00,,,0.56,,2013-05-26 00:42:00,
2013-05-25 19:52:00,73.0,69.0,30.00,ESE,123,2.0,8.0,86,0.00,,,0.56,,2013-05-26 00:52:00,
2013-05-25 20:01:00,73.0,68.0,30.00,ESE,123,3.0,7.0,85,0.00,,,0.56,,2013-05-26 01:01:00,
2013-05-25 20:11:00,73.0,68.0,30.00,ESE,123,3.0,7.0,85,0.00,,,0.56,,2013-05-26 01:11:00,
2013-05-25 20:21:00,73.0,68.0,30.00,ESE,123,4.0,7.0,85,0.00,,,0.54,,2013-05-26 01:21:00,
2013-05-25 20:32:00,73.0,69.0,30.00,ESE,123,1.0,6.0,86,0.00,,,0.50,,2013-05-26 01:32:00,
2013-05-25 20:42:00,73.0,69.0,30.00,ESE,123,1.0,6.0,86,0.00,,,0.50,,2013-05-26 01:42:00,
2013-05-25 20:52:00,73.0,69.0,29.99,SE,126,4.0,7.0,87,0.00,,,0.50,,2013-05-26 01:52:00,
2013-05-25 21:02:00,72.0,68.0,29.99,SE,128,5.0,7.0,88,0.00,,,0.49,,2013-05-26 02:02:00,
2013-05-25 21:11:00,72.0,68.0,29.99,SE,128,5.0,7.0,88,0.00,,,0.49,,2013-05-26 02:11:00,
2013-05-25 21:21:00,72.0,68.0,29.99,SE,128,4.0,8.0,88,0.00,,,0.47,,2013-05-26 02:21:00,
2013-05-25 21:32:00,72.0,69.0,29.98,SE,139,6.0,12.0,89,0.00,,,0.46,,2013-05-26 02:32:00,
2013-05-25 21:42:00,72.0,69.0,29.98,SE,139,6.0,12.0,89,0.00,,,0.46,,2013-05-26 02:42:00,
2013-05-25 21:52:00,72.0,69.0,29.99,SE,137,7.0,12.0,89,0.00,,,0.46,,2013-05-26 02:52:00,
2013-05-25 22:01:00,72.0,69.0,29.99,SE,137,7.0,12.0,89,0.00,,,0.46,,2013-05-26 03:01:00,
2013-05-25 22:11:00,72.0,69.0,29.99,SE,137,7.0,12.0,89,0.00,,,0.46,,2013-05-26 03:11:00,
2013-05-25 22:21:00,72.0,69.0,30.00,SE,137,5.0,7.0,89,0.00,,,0.46,,2013-05-26 03:21:00,
2013-05-25 22:33:00,72.0,69.0,30.01,SE,135,6.0,8.0,89,0.00,,,0.46,,2013-05-26 03:33:00,
2013-05-25 22:42:00,72.0,69.0,30.01,SE,135,6.0,8.0,89,0.00,,,0.46,,2013-05-26 03:42:00,
2013-05-25 22:53:00,73.0,70.0,30.01,SE,134,5.0,9.0,89,0.00,,,0.46,,2013-05-26 03:53:00,
2013-05-25 23:02:00,73.0,70.0,30.02,SE,132,6.0,9.0,90,0.00,,,0.46,,2013-05-26 04:02:00,
2013-05-25 23:12:00,73.0,70.0,30.02,SE,137,6.0,12.0,90,0.00,,,0.46,,2013-05-26 04:12:00,
2013-05-25 23:23:00,73.0,70.0,30.02,SE,137,6.0,12.0,90,0.00,,,0.46,,2013-05-26 04:23:00,
2013-05-25 23:33:00,73.0,70.0,30.03,SE,138,2.0,7.0,90,0.00,,,0.46,,2013-05-26 04:33:00,
2013-05-25 23:42:00,73.0,70.0,30.03,SE,138,2.0,7.0,90,0.00,,,0.46,,2013-05-26 04:42:00,
2013-05-25 23:52:00,73.0,70.0,30.04,SE,138,3.0,6.0,90,0.00,,,0.46,,2013-05-26 04:52:00,